RH
56 55 64 59 68 66 69 80 73 58 51 60 61 54 48 52 91 99 98 98 98 96 94 94 93 96 97 96 92 82 82 86 79 79 81 79 78 76 73 70 63 64 65 67
56 49 46 54 57 58 63 70 64 58 55 64 55 48 43 90 88 89 93 93 96 97 94 93 97 97 97 96 94 81 72 72 74 73 75 73 75 75 72 72 66 66 64 67
69 45 50 52 50 59 67 71 68 69 63 58 50 49 47 58 82 84 80 94 94 96 96 97 96 95 95 97 96 93 72 67 70 71 76 80 76 76 73 73 69 67 64 69
55 48 51 58 42 65 67 61 65 69 65 66 52 65 44 48 58 68 87 92 93 91 93 94 94 96 94 98 96 93 91 64 66 73 73 71 73 73 74 72 74 70 68 68
24 53 60 52 38 64 50 60 71 71 69 68 58 64 46 47 44 46 49 57 73 96 92 94 93 89 90 95 97 97 93 70 65 71 65 68 70 67 73 73 68 70 70 68
50 49 62 57 53 54 48 56 52 68 69 79 67 71 53 51 49 46 48 54 95 96 98 96 93 92 95 96 96 98 98 93 70 70 70 69 70 70 72 74 75 77 76 76
36 32 33 51 43 46 57 63 73 64 82 74 63 67 51 45 56 55 54 55 77 95 95 97 98 98 96 97 95 95 92 91 93 85 67 67 70 72 70 69 71 74 74 75
56 48 32 34 57 62 63 61 80 55 80 78 59 57 53 44 52 52 47 46 46 50 67 93 94 93 96 97 95 93 94 87 81 78 82 75 68 69 69 69 68 68 68 63
39 30 34 49 57 54 50 74 69 73 80 70 63 50 44 45 48 46 45 31 35 43 45 50 56 86 94 92 95 97 95 90 84 77 72 70 78 81 78 66 60 62 63 64
43 50 40 36 37 40 63 62 48 64 61 71 65 55 70 56 41 39 38 37 35 38 40 42 41 47 65 89 96 96 97 96 89 82 77 72 72 70 67 64 72 66 61 63
49 47 38 32 31 38 51 53 51 53 69 58 58 47 50 51 45 50 48 39 39 35 41 40 42 63 74 78 80 87 94 96 96 95 86 76 73 67 64 73 71 66 67 69
50 49 55 34 36 43 56 56 43 50 47 58 54 56 41 52 57 57 59 50 38 45 49 47 45 48 54 63 75 85 86 87 87 92 96 94 86 81 79 77 74 73 70 72
39 39 47 38 39 35 41 49 50 52 60 60 59 49 56 65 65 60 66 56 54 53 52 51 49 51 54 60 71 82 87 90 91 92 93 94 96 93 91 85 82 83 88 89
48 50 36 42 32 35 41 43 46 46 76 58 58 47 89 87 80 71 71 67 64 62 60 58 56 54 55 56 60 65 68 84 91 91 92 94 94 94 92 89 89 88 89 89
53 61 63 50 48 51 49 49 53 59 54 54 56 56 97 94 86 77 79 61 58 58 58 60 59 62 59 58 58 60 66 75 87 91 92 92 92 94 96 93 91 92 95 92
69 57 71 74 58 60 56 51 58 60 61 57 58 72 91 86 82 70 82 64 62 61 59 58 56 58 64 61 57 56 61 65 81 88 90 92 93 94 95 96 96 95 97 96
64 71 61 68 56 49 56 57 63 91 82 88 84 85 77 80 78 69 79 66 62 61 59 57 55 53 52 51 52 55 60 62 68 77 82 90 91 92 95 96 98 97 96 96
57 67 56 66 56 76 78 79 74 83 83 79 78 78 77 76 65 62 66 64 63 61 61 59 58 58 56 54 53 53 56 57 62 75 75 85 89 91 94 97 97 98 97 97
55 61 64 66 70 61 90 85 90 96 92 82 83 78 72 67 68 72 61 61 65 64 62 61 60 60 58 58 57 59 61 62 66 69 72 79 85 88 91 93 95 97 99 99
57 57 66 69 73 71 90 80 72 79 93 78 70 73 78 75 77 60 66 64 65 63 62 63 61 62 63 60 58 61 64 66 69 68 70 70 81 90 90 92 90 96 98 99
73 72 71 72 80 75 83 72 72 97 94 79 69 73 78 84 79 72 66 66 62 62 63 62 66 65 67 65 66 68 65 67 64 66 65 69 76 86 86 91 94 98 99 99
79 88 90 84 91 91 77 74 82 90 66 72 76 78 80 74 72 71 67 67 66 68 68 68 70 68 65 64 66 72 76 70 68 67 69 72 74 81 84 96 96 97 99 99
86 89 91 93 94 86 82 81 70 74 84 83 85 80 77 79 74 69 72 74 72 70 71 63 66 67 65 65 66 72 71 71 75 77 76 75 75 80 89 98 98 98 99 98
93 85 94 92 92 93 79 74 75 76 82 81 79 77 78 83 79 78 78 77 74 72 74 71 74 74 74 70 69 66 67 71 85 88 84 81 82 85 90 95 96 97 97 97
96 86 84 86 89 92 88 81 81 81 77 77 80 77 77 83 81 82 80 78 78 76 74 73 71 72 77 70 66 64 66 76 90 90 88 87 80 88 92 93 94 95 94 91
96 97 94 89 90 96 90 83 76 81 82 79 84 79 73 76 80 79 81 78 79 78 75 74 75 77 78 70 70 66 69 77 93 93 87 90 86 92 98 97 98 89 86 89
Wind_Speed
4 6 4 8 5 6 7 4 6 6 4 6 4 5 8 6 4 2 3 3 4 6 4 5 7 10 8 8 1 5 8 8 7 3 4 2 2 2 2 4 6 7 6 7
6 2 5 7 5 5 5 4 7 10 2 1 6 5 6 4 3 3 2 5 6 4 4 4 6 8 10 9 6 4 5 7 7 5 4 4 4 3 2 3 4 5 7 7
2 5 7 5 4 8 4 3 6 6 8 0 4 8 9 5 5 3 5 5 6 7 8 4 8 9 10 10 5 3 4 4 5 5 4 3 3 2 2 3 3 5 7 7
4 4 6 7 3 3 5 2 5 5 6 4 7 3 7 8 9 9 9 7 5 8 8 5 5 7 10 11 7 9 7 4 4 7 4 6 5 5 4 4 3 4 6 6
5 6 7 5 7 1 9 5 3 2 3 3 12 7 9 6 10 9 10 10 8 6 11 9 7 8 6 11 10 7 6 3 5 6 8 6 4 3 2 2 5 6 5 6
6 4 1 4 7 2 11 3 4 4 3 6 6 3 7 6 6 8 9 12 11 5 1 6 6 4 4 2 4 4 4 7 4 6 7 8 7 5 4 3 3 4 3 4
8 4 5 2 7 7 11 8 5 8 7 3 5 5 4 5 3 3 8 11 10 8 4 3 3 4 5 6 6 5 6 9 10 8 8 8 7 7 8 7 6 6 4 4
3 11 7 7 2 3 4 3 4 1 2 5 7 4 2 4 4 5 4 5 8 10 8 7 4 3 4 5 6 7 7 9 9 11 14 11 8 5 6 7 7 7 7 8
4 6 5 2 2 2 7 6 1 4 1 2 5 6 3 9 12 12 12 16 15 10 10 10 8 6 6 6 6 7 10 10 9 12 11 12 11 11 9 11 8 6 7 6
0 5 1 6 2 3 4 1 4 5 4 4 5 4 3 10 16 16 16 15 14 13 12 8 8 8 6 6 6 5 5 8 8 9 9 9 10 11 11 8 9 11 9 9
3 2 7 4 4 2 5 4 5 5 2 2 3 4 2 7 8 13 14 14 11 13 12 12 11 9 6 6 6 7 6 6 4 4 6 8 9 10 9 9 11 12 10 10
1 3 4 6 3 2 2 3 4 4 4 1 2 6 5 5 9 16 17 15 12 10 11 12 12 11 12 10 8 6 6 6 6 5 4 6 7 7 8 10 11 10 12 10
2 2 6 8 4 2 2 1 3 4 3 5 4 5 6 13 17 16 18 17 15 16 18 17 17 16 15 14 11 9 8 7 6 6 6 7 6 6 7 8 9 8 8 9
3 2 7 7 7 1 4 2 4 4 2 4 7 8 12 13 14 13 14 13 12 14 16 16 17 16 14 14 14 15 15 10 7 6 7 8 8 7 6 7 8 8 10 9
5 6 5 7 9 4 7 10 8 10 8 8 3 2 5 7 9 10 6 12 17 19 19 17 17 16 16 18 17 16 14 14 11 10 7 7 7 7 7 6 7 7 8 10
4 3 1 5 9 3 7 10 8 4 1 8 4 4 3 6 7 10 8 14 17 17 18 19 19 18 17 17 17 17 15 16 13 12 10 7 7 7 6 6 7 6 6 7
1 2 2 6 3 7 6 3 2 5 6 3 2 5 9 9 13 14 7 10 13 16 18 20 20 19 18 19 17 17 15 14 13 12 12 9 8 9 7 6 5 7 7 7
4 3 2 5 4 3 3 6 10 13 8 9 8 11 9 10 13 15 9 16 20 18 18 17 16 18 18 19 18 17 17 16 14 14 13 10 9 9 8 7 6 7 5 8
5 4 3 3 2 3 3 3 4 3 5 9 7 8 10 13 13 3 16 19 14 16 16 16 16 17 19 19 18 18 18 17 15 16 15 12 10 11 10 10 10 7 5 6
6 3 2 1 2 6 2 3 5 4 5 8 8 8 11 13 6 5 19 17 15 14 13 16 17 16 16 18 19 19 18 17 18 17 16 15 12 12 13 11 11 7 5 7
3 1 5 4 4 4 3 11 6 3 1 7 8 9 11 8 6 15 17 20 18 15 16 16 14 15 16 18 19 19 19 18 18 19 19 18 14 13 13 12 9 7 6 4
5 5 4 2 3 8 9 0 1 2 3 7 7 8 10 10 12 12 12 13 15 17 22 24 18 16 16 15 16 19 19 20 20 20 20 18 16 11 10 11 8 6 7 7
3 1 1 1 1 4 7 8 4 4 2 4 6 7 8 9 12 12 13 14 14 15 14 14 16 20 19 18 18 20 18 20 20 21 22 20 19 13 11 9 9 6 7 7
2 1 2 2 5 5 7 5 5 4 4 5 6 9 9 11 11 13 13 13 14 14 16 16 16 16 18 19 20 21 22 21 20 19 20 19 17 14 10 7 8 8 8 8
1 4 1 2 3 9 6 6 4 4 5 6 8 6 8 9 11 12 12 13 13 14 14 14 16 18 19 19 21 22 22 21 20 19 17 17 14 12 9 10 9 9 9 11
3 1 1 1 3 1 2 4 6 5 6 6 6 8 7 7 10 12 11 11 12 14 15 15 16 17 19 19 20 21 21 22 20 19 14 13 13 8 7 8 7 17 15 18
Wind_Direction
350 46 323 295 241 238 267 251 273 273 269 343 346 292 304 332 12 179 156 135 172 153 147 215 185 145 127 141 34 252 175 153 142 128 130 113 177 187 217 210 203 191 182 176
11 320 298 288 286 273 297 291 318 294 279 334 344 357 341 30 16 332 295 149 191 163 149 133 107 108 102 90 102 6 262 166 171 157 142 150 159 187 196 203 214 199 185 177
179 271 325 337 323 347 338 311 312 265 320 141 340 19 3 336 340 24 3 16 160 163 137 143 138 137 121 134 148 214 325 248 150 139 118 88 87 79 156 200 206 205 197 191
241 310 337 311 337 34 317 87 294 308 25 15 17 19 4 345 20 24 359 344 334 142 143 156 155 177 186 127 191 193 197 215 190 159 171 177 181 171 197 185 180 201 201 198
275 346 348 339 304 1 257 347 293 354 36 21 356 70 299 355 8 357 348 345 328 175 159 170 184 223 213 143 172 183 162 238 205 202 199 196 195 206 136 144 185 196 198 201
260 284 280 271 310 273 294 31 36 46 47 40 322 64 338 2 337 330 334 356 1 2 171 159 154 195 257 131 171 153 155 225 226 202 226 208 206 179 160 182 214 219 203 211
327 338 321 0 351 354 12 30 2 17 15 247 336 43 241 329 355 325 343 354 1 359 356 336 199 181 201 240 197 194 174 217 219 236 233 223 216 191 196 196 201 189 200 212
43 333 9 349 64 292 349 48 111 34 2 292 337 23 322 342 16 31 55 360 354 359 350 340 307 250 221 208 229 215 205 222 209 210 230 231 215 211 212 202 202 205 206 216
359 288 319 39 333 74 321 40 257 103 180 54 306 317 13 29 18 1 1 4 350 342 345 342 333 313 283 255 212 199 202 210 207 213 216 217 214 214 220 228 213 217 212 210
4 301 315 292 38 30 79 228 26 9 25 355 324 299 250 13 2 354 353 343 336 338 346 348 341 322 316 306 295 276 234 225 216 220 224 227 222 227 225 221 206 210 215 211
109 120 291 357 35 288 356 21 49 111 97 115 318 286 2 21 340 347 344 334 323 346 348 345 352 351 356 352 350 330 323 310 290 234 217 227 230 227 226 218 229 226 222 205
28 149 291 271 295 294 173 126 113 108 293 100 172 275 102 25 28 13 360 351 2 6 1 3 357 3 10 3 358 358 341 335 319 302 272 247 242 231 225 220 226 219 220 209
159 330 328 349 358 4 58 106 123 109 96 208 156 255 15 25 28 20 12 11 14 17 16 10 12 9 3 2 358 350 347 337 330 332 321 307 277 248 235 231 224 223 221 213
123 175 180 211 237 138 298 224 200 140 155 208 221 269 17 1 5 2 3 0 7 13 10 7 4 359 357 358 356 354 347 342 331 333 326 316 307 294 267 250 237 229 222 211
138 223 178 257 274 237 255 257 219 190 189 190 267 131 8 352 344 336 344 0 5 6 4 2 356 353 353 353 351 348 343 339 332 322 318 303 302 301 289 264 244 228 211 213
17 284 177 261 263 268 256 267 255 220 233 269 215 159 38 318 319 352 1 5 1 358 353 349 347 345 347 345 340 335 332 332 330 317 303 297 299 297 285 276 261 236 214 211
250 197 5 266 335 309 297 11 96 111 58 329 51 34 2 346 340 333 12 9 355 351 345 341 338 335 333 331 329 321 320 320 319 313 307 298 298 298 288 278 260 240 225 205
187 155 198 280 348 255 342 16 94 103 66 34 23 6 346 332 312 301 41 5 354 343 338 334 331 327 326 323 321 319 319 316 313 307 305 298 289 282 282 275 250 238 217 208
166 152 242 246 244 300 246 35 38 36 89 35 360 340 339 331 312 183 17 4 334 330 328 325 327 323 320 321 321 319 316 314 312 307 305 301 291 286 279 272 268 238 212 206
90 82 152 174 235 256 69 342 358 284 183 12 360 340 339 339 351 299 337 337 332 329 324 325 324 322 320 320 319 317 315 313 309 306 303 300 290 278 275 257 257 241 223 214
112 168 224 245 260 285 338 307 312 173 314 340 349 349 344 340 304 308 323 326 329 327 330 332 327 328 327 323 323 319 317 312 307 307 303 297 289 275 267 258 234 209 210 187
185 173 208 181 247 255 335 99 33 330 340 342 346 349 332 321 314 314 318 323 325 331 338 337 336 333 329 327 324 319 314 310 307 302 296 293 291 279 273 244 228 202 188 200
214 291 183 237 353 106 48 83 36 1 336 1 337 327 336 320 321 325 328 327 327 334 332 333 331 326 329 329 329 321 315 313 308 308 300 294 287 284 269 237 218 195 189 196
122 5 188 160 130 127 106 81 36 18 8 352 337 339 333 324 324 324 322 328 335 338 333 333 328 325 323 328 328 326 320 317 310 299 301 296 292 289 269 233 216 203 191 199
17 339 48 94 67 125 120 75 21 14 15 355 332 328 324 322 323 325 325 331 329 324 331 329 329 328 323 328 330 327 326 321 315 307 301 294 281 276 262 230 222 219 216 196
2 129 182 313 62 331 39 73 27 8 356 331 319 323 328 321 318 321 321 321 318 327 326 328 326 324 325 329 329 328 331 325 319 313 309 302 288 272 255 234 229 232 226 215